User: anonymous   Login
Location: Unspecified
(0.0000°N, 0.0000°E)
Time: 04:32:00
(UTC+00:00)
Language:

OBJECT AU - Orbit

View from above orbital plane
View from above orbital plane
View from above satellite
View from above satellite

Ground track
Ground track

The orbit is defined by the following mean orbital elements,

1 61777U          26145.57870019 +.00000000 +00000-0 +36388-3 0 00007
2 61777  97.3025  18.0024 0014699   9.7152 350.4378 15.44673509    08
Epoch (UTC): 25 May 2026 13:53:19
Eccentricity: 0.0014699
inclination: 97.3025°
perigee height: 422 km
apogee height: 442 km
right ascension of ascending node: 18.0024°
argument of perigee: 9.7152°
revolutions per day: 15.44673509
mean anomaly at epoch: 350.4378°

The dashed part of the orbit path shows where the satellite is in the earth's shadow,  

DLR